Zurück zum Katalog

STARLINK-3772

AktivKommunikationVLEO
NORAD 52290·PAYLOAD·🇺🇸 United States

Gestartet Apr 21, 2022 von Cape Canaveral Space Force Station

Loading…

Nächste Überflüge (nächste 24 Stunden)

TLE

AktuellSource: CelesTrak SupGP

Epoche: Sep 15, 2026, 02:12 UTC

1 52290C 22041AF  26258.09215278  .00044167  00000+0  13067-2 0  2582
2 52290  53.1580 316.7608 0001351  96.3113 160.1970 15.34325923    18

Verfolge STARLINK-3772 in Echtzeit mit AllMySat

Download on the App Store